Regional Weather Roundup
Issued by NWS

Home | Current Version | Previous Version | Text Only | Print | Product List | Glossary On
Versions: 1 2 3 4 5 6 7 8 9 10 11 12 13 14 15 16 17 18 19 20 21 22 23 24 25 26 27 28 29 30 31 32 33 34 35 36 37 38 39 40 41 42 43 44 45 46 47 48 49 50
000
ASUS43 KDTX 211101
RWRMI
MICHIGAN HOURLY REGIONAL WEATHER ROUNDUP
NATIONAL WEATHER SERVICE DETROIT/PONTIAC MI
700 AM EDT MON AUG 21 2017

NOTE: "FAIR" INDICATES FEW OR NO CLOUDS BELOW 12,000 FEET WITH NO
SIGNIFICANT WEATHER AND/OR OBSTRUCTION TO VISIBILITY.

MIZ047>049-052>055-059>063-066>070-074>076-081>083-211200-
SOUTHEAST LOWER MICHIGAN

CITY           SKY/WX    TMP DP  RH WIND       PRES   REMARKS
ADRIAN         CLOUDY    67  64  90 CALM      30.13R FOG
ALMA           PTCLDY    64  62  94 W5        30.09S FOG
ANN ARBOR      FOG       62  62 100 CALM      30.11R VSB 3/4
BAD AXE        CLEAR     64  61  91 CALM      30.10R
CARO           PTCLDY    63  61  93 SW3       30.09R
DETROIT CITY   CLOUDY    68  65  90 CALM      30.10R
DETROIT        MOCLDY    70  68  93 CALM      30.11R FOG
FLINT          CLOUDY    68  64  87 S3        30.10R
GROSSE ILE     FOG       67  66  96 CALM      30.09S VSB 1/2
HILLSDALE      CLOUDY    68  64  88 S3        30.12R
HOWELL         CLOUDY    67  65  93 CALM      30.11R

CITY           SKY/WX    TMP DP  RH WIND       PRES   REMARKS
JACKSON        CLOUDY    66  64  93 CALM      30.11R
LAMBERTVILLE   CLOUDY    66  66  97 S5        30.11R FOG
LANSING        CLOUDY    69  63  81 CALM      30.10R
LAPEER         FAIR      61  60  97 CALM      30.11R FOG
MASON          CLOUDY    68  64  86 SE6       30.11S
MONROE         FOG       64  63  99 CALM      30.10R VSB 1/4
MT. CLEMENS    MOCLDY    64  64 100 CALM      30.09R
PONTIAC        MOCLDY    67  66  97 CALM      30.11R
PORT HOPE        N/A     67  62  84 SW6       30.06R
PORT HURON     PTCLDY    61  59  94 CALM      30.11R FOG
TRI CITIES     CLOUDY    68  65  90 SW7       30.09R
MIDLAND        FAIR      62  61  99 CALM      30.08R
TROY           PTCLDY    69  67  92 CALM      30.12F
SAGINAW HB     MOCLDY    66  63  88 S6        30.08R
$$
MIZ043>046-050>051-056>058-064>065-071>073-077>080-211200-
SOUTHWEST LOWER MICHIGAN

CITY           SKY/WX    TMP DP  RH WIND       PRES   REMARKS
BATTLE CREEK   CLOUDY    70  65  84 S5        30.11R
BENTON HARBOR  CLOUDY    73  65  75 CALM      30.07R
BIG RAPIDS     CLOUDY    58  56  94 CALM      30.09R FOG
COLDWATER      CLOUDY    69  67  94 CALM      30.11S
FREMONT        FAIR      63  63 100 CALM      30.07S FOG
HOLLAND        PTCLDY    67  64  90 CALM      30.08R
GRAND RAPIDS   CLOUDY    68  65  90 SE3       30.08R
IONIA          FAIR      67  64  90 SE3       30.08S
KALAMAZOO      CLOUDY    71  64  78 S5        30.09R
LUDINGTON      CLOUDY    61  60  96 CALM      30.06S
MARSHALL       CLOUDY    68  66  95 CALM      30.10S
MOUNT PLEASANT   N/A     64  62  95 CALM      30.07S FOG
MUSKEGON       CLOUDY    67  64  90 CALM      30.07R
SOUTH HAVEN    MOCLDY    68  66  92 CALM      30.08R
$$
MIZ016>042-211200-
NORTHERN LOWER MICHIGAN

CITY           SKY/WX    TMP DP  RH WIND       PRES   REMARKS
ALPENA         CLEAR     68  63  84 W3        30.05R
BEAVER ISLAND  FOG       64  64  99 CALM      30.03R VSB 1/4
BELLAIRE       CLOUDY    65  62  93 S3        30.05R
CADILLAC       CLEAR     64  60  88 SW5       30.09R
CHARLEVOIX     CLOUDY    69  69  99 SW6       30.06R
FRANKFORT      PTCLDY    67  67 100 CALM      30.05S
GAYLORD        CLOUDY    64  61  90 CALM      30.07R
GRAYLING       CLOUDY    58  56  92 NW3       30.08R
HARBOR SPRINGS CLOUDY    69  67  93 CALM      30.03R
HOUGHTON LAKE  PTCLDY    66  61  84 SW5       30.09R
MANISTEE       CLOUDY    61  60  97 CALM      30.06R
OSCODA         CLEAR     65  61  88 SW6       30.05R
PELLSTON       CLOUDY    66  66 100 CALM      30.03R
ROGERS CITY    CLEAR     68  63  84 W5        30.04R
TRAVERSE CITY  CLOUDY    70  63  78 VRB3      30.04R
$$
MIZ007>008-015-211200-
EASTERN UPPER MICHIGAN

CITY           SKY/WX    TMP DP  RH WIND       PRES   REMARKS
KINROSS        FOG       64  64 100 W5        30.03R VSB 1/4
MACKINAC ISLAN CLOUDY    67  67 100 SW8       30.02R FOG
NEWBERRY       PTCLDY    64  63  97 CALM      30.02R FOG
S. S. MARIE    PTCLDY    62  61  96 SW3       30.01R FOG
MUNISING         N/A     63  63 100 S6        30.02R
$$
MIZ004>006-011>014-085-211200-
CENTRAL UPPER MICHIGAN

CITY           SKY/WX    TMP DP  RH WIND       PRES   REMARKS
MANISTIQUE     CLOUDY    65  60  81 CALM      30.03R HAZE
ESCANABA       CLOUDY    67  64  90 W3        30.04R
MENOMINEE      CLOUDY    67  66  97 W3        30.05R
SAWYER-GWINN   CLEAR     59  57  94 W3        30.06R
$$
MIZ001>003-009>011-084-211200-
WESTERN UPPER MICHIGAN

CITY           SKY/WX    TMP DP  RH WIND       PRES   REMARKS
IRON MOUNTAIN  MOCLDY    65  61  87 CALM      30.06R
HOUGHTON       CLEAR     58  54  86 NW8       30.04R
COPPER HARBOR    N/A     63  52  67 W5        30.01R
IRONWOOD       PTCLDY    50  50 100 CALM      30.09R FOG
$$

ABBREVIATIONS USED IN REMARKS
   TC - TEMPERATURE IN CELSIUS
  WCI - WIND CHILL INDEX
   HX - HEAT INDEX
  VSB - VISIBILITY





USA.gov is the U.S. government's official web portal to all federal, state and local government web resources and services.